{"data":{"norad_id":53471,"intl_designator":"2022-099G","name":"STARLINK-4316","alt_names":[],"object_type":"PAYLOAD","status":"ACTIVE","operator":null,"country":"US","launch_date":"2022-08-12","launch_site_code":"AFWTR","launch_vehicle":null,"mission":null,"orbit_class":"UNKNOWN","rcs_meters":null,"size_class":null,"mass_kg":null,"dimensions":null,"purposes":["comms"],"wikipedia_slug":null,"has_3d_model":false,"image_url":null,"decayed_at":null,"tle_current":{"epoch":"2026-09-20T06:44:55.235904Z","epoch_age_seconds":97171,"freshness":"FRESH","line1":"1 53471U 22099G   26263.28119486  .00000639  00000+0  22124-4 0  9992","line2":"2 53471  97.2854  20.9606 0001054  91.6721 268.4643 15.33437980225517","mean_motion":15.3343798,"eccentricity":0.0001054,"inclination_deg":97.2854,"raan_deg":20.9606,"arg_perigee_deg":91.6721,"mean_anomaly_deg":268.4643,"bstar":2.2124e-5,"rev_number":22551,"period_min":93.906634554597,"perigee_km":464.84273504698,"apogee_km":466.28538723067,"semimajor_km":6843.7010611388,"source":"CELESTRAK","updated_at":"2026-09-21T09:00:32.887264Z"}}}